Location: Ashtead
(51.3000°N, 0.3000°W)
Time: 04:12:03
(UTC+00:00)

Cosmos 2219 Rocket - Pass Details

Date: 26 September 2023
Orbit: 826 x 848 km, 71.0° (Epoch: 29 November)

Event Time Altitude Azimuth Distance (km) Brightness Sun altitude
Rises 04:59:35 0° 326° (NW) 3,396 5.1 -9.2°
Reaches altitude 10° 05:02:08 10° 320° (NW) 2,461 4.3 -8.8°
Maximum altitude 05:07:24 42° 251° (WSW) 1,180 2.5 -8.0°
Drops below altitude 10° 05:12:41 10° 182° (S) 2,458 4.5 -7.1°
Sets 05:15:14 0° 175° (S) 3,392 5.3 -6.7°
